STARLINK-5101, 54822

Orbit data source: Space-Track

STARLINK-5101, 54822 is a payload satellite owned by SpaceX/Seattle (US) in LEO that was launched on Wed, 28 Dec 2022 UTC via an FALCON 9 launch vehicle from the Air Force Eastern Test Range (AFETR). Payload-class satellites include a variety of spacecraft equipped with specific instruments for various scientific and technological missions. These include communications satellites like Starlink; space stations such as the ISS; scientific satellites like the Hubble; Earth observation satellites from companies like Planet Labs, Umbra, and HawkEye 360; GPS; miniature CubeSats for education and research; and military/defense satellites.

Loading next visibility...
Identifier
54822, 2022-177C
Orbit
LEO
Country
Flag of USUS
Related business
Manufacturer
SpaceX/Seattle
Mission
Operational Commercial Communications
Bus & Motor
STARLINK, Unknown motor
Mass
305 kg wet, ~290 kg dry
Launch date (UTC)
2022-12-28 (3 years ago)
Launch vehicle
FALCON 9
Launch site
Air Force Eastern Test Range (AFETR)
Object type
Payload
Rocket body
Debris
Shape & HBR
Box + 1 Pan, 10.1 m
Radar Cross Section
13.562 m², Large (>1 m²)

Expand to show TLE details & history
Last TLE update: 2 days ago

TLE from 2 days ago
0 STARLINK-5101
1 54822U 22177C   26171.35702554  .00000355  00000-0  22421-4 0  9996
2 54822  43.0026 276.3664 0001571 266.8029  93.2643 15.27579663192627
Epoch: 2026-06-20T08:34Z
TLE epoch observation values (Epoch: 2026-06-20T08:34:07.006Z)
Latitude
-0.00002°
Longitude
-120.73563°
Altitude
482.887 km
Speed
7.626 km/s
True Right ascension
18h 25m 27s
True Declination
0° 00' 00"
Sunlit
Object was in full shadow at epoch
Visualization orbit readout
Latitude
Unknown
Longitude
Unknown
Altitude
Unknown
Speed
Unknown
Apparent Right ascension
Unknown
Apparent Declination
Unknown
Sunlit
N/A
Visualization observer readout
Local Sidereal Time
21:23:36
Azimuth
Unknown
Elevation
Unknown
Doppler factor
Unknown
Orbital elements
Apogee altitude
486.073 km
Perigee altitude
483.917 km
Semi-major axis
6,863.132 km
Eccentricity
0.00016
Inclination
43.0026°
RAAN
276.3664°
Arg. of periapsis
266.8029°
True anomaly
93.28227°
Mean anomaly
93.2643°
Eccentric anomaly
93.27329°
Mean motion
3.81733 °/min
Orbital period
94.31 mins
BSTAR
0.000022421
Loading maneuver chart data...
Computing Atmospheric mass density...
Loading historical data...
Loading historical data...
Loading historical data...
Loading historical data...
Loading historical data...
Loading historical data...
Loading historical data...

Documentation

Showing up to 5 results
|